[[{"header":{"parameterUnit":"m.s-1","parameterCategory":2,"la1":30.2991,"la2":30.254,"lo1":-89.0895,"lo2":-89.0444,"dy":0.0017,"dx":0.0017,"nx":28,"ny":28,"refTime":"2024-05-10T21:00:00:Z","depth":"0","parameterNumber":2,"parameterNumberName":"U-component_of_CURRENTS"},"data":[0,0,0,0,0,0,0,0,0,0,0,0,0,0,0,0,0,0,0,0,0,0,0,0,0,0,0,0,0,0,0,0,0,0,0,0,0,0,0,0,0,0,0,0,0,0,0,0,0,0,0,0,0,0,0,0,0,0,-0.2611,-0.2612,0,-0.2623,-0.2623,-0.2623,-0.2583,-0.2582,-0.2581,-0.258,-0.2561,-0.2562,-0.2562,0,0,0,0,0,0,0,0,0,0,0,0,0,-0.2578,-0.2579,-0.2611,-0.2612,-0.2612,-0.2623,-0.2623,-0.2623,-0.2583,-0.2582,-0.258,-0.2579,-0.2561,-0.2562,-0.2562,0,0,0,0,0,0,0,0,0,0,0,0,0,-0.259,-0.2579,-0.2611,-0.2594,-0.2593,-0.2623,-0.2623,-0.2623,-0.2583,-0.2582,-0.258,-0.2579,-0.2561,-0.2562,-0.2563,-0.2599,0,0,-0.2565,-0.2565,0,0,0,0,0,0,0,0,-0.2589,-0.2591,-0.2597,-0.2596,-0.2594,-0.2601,-0.2604,-0.2614,-0.2584,-0.2586,-0.258,-0.2578,-0.2574,-0.2574,-0.2578,-0.2598,-0.2597,-0.2565,-0.2565,-0.2566,-0.2566,0,0,0,0,0,0,0,-0.2589,-0.2591,-0.2614,-0.2597,-0.2596,-0.2594,-0.2594,-0.2606,-0.2587,-0.2585,-0.2583,-0.2587,-0.2573,-0.2577,-0.2577,-0.2597,-0.2565,-0.2565,-0.2566,-0.2566,-0.2596,-0.2596,0,0,0,0,0,0,-0.2591,-0.259,-0.2614,-0.2615,-0.259,-0.2596,-0.2596,-0.2599,-0.2587,-0.2585,-0.2588,-0.2585,-0.2577,-0.2576,-0.2576,-0.26,-0.2566,-0.2566,-0.2567,-0.2595,-0.2596,-0.2596,0,0,0,0,0,0,-0.259,-0.2593,-0.2613,-0.2604,-0.2606,-0.2599,-0.2603,-0.26,-0.2597,-0.259,-0.2586,-0.2587,-0.2575,-0.2575,-0.2579,-0.26,-0.2567,-0.2567,-0.2595,-0.2595,-0.2596,-0.266,0,0,0,0,0,0,-0.2589,-0.2593,-0.2594,-0.2604,-0.2607,-0.2632,-0.2605,-0.2602,-0.2604,-0.2599,-0.2588,-0.2585,-0.2574,-0.2578,-0.258,-0.26,-0.2568,-0.2595,-0.2595,-0.2596,-0.2658,-0.2663,-0.2667,0,0,0,0,0,-0.2588,-0.2598,-0.2594,-0.2597,-0.2609,-0.2633,-0.2634,-0.2622,-0.2605,-0.2612,-0.2598,-0.2585,-0.2583,-0.258,-0.2581,-0.2602,-0.2594,-0.2595,-0.2596,-0.2655,-0.2662,-0.2667,0,0,0,0,0,0,-0.2588,-0.2596,-0.2591,-0.2603,-0.2617,-0.2626,-0.2633,-0.2627,-0.2623,-0.2614,-0.2598,-0.2595,-0.2607,-0.2593,-0.259,-0.2609,-0.2584,-0.2585,-0.2629,-0.2634,-0.2639,-0.2649,-0.2569,0,0,0,0,0,-0.259,-0.2594,-0.2609,-0.2619,-0.2627,-0.2631,-0.2637,-0.2633,-0.2633,-0.2629,-0.2621,-0.2611,-0.2615,-0.2614,-0.2614,-0.2632,-0.2593,-0.2641,-0.2646,-0.2651,-0.2658,-0.262,-0.2622,-0.2599,-0.2599,-0.2599,0,0,-0.2592,-0.2598,-0.2599,-0.2618,-0.2626,-0.2657,-0.263,-0.2645,-0.2666,-0.2631,-0.2647,-0.2633,-0.2624,-0.2639,-0.2643,-0.2628,-0.2632,-0.2652,-0.2656,-0.2661,-0.2621,-0.2623,-0.2625,-0.2599,-0.2599,-0.2599,0,0,-0.2612,-0.2607,-0.2624,-0.2642,-0.266,-0.2669,-0.2675,-0.2687,-0.2684,-0.2705,-0.268,-0.2673,-0.2684,-0.2675,-0.2675,-0.2706,-0.2661,-0.2705,-0.274,-0.2703,-0.2705,-0.2706,-0.2638,-0.2633,-0.2705,-0.2705,-0.2705,0,-0.2617,-0.2637,-0.2634,-0.2666,-0.2684,-0.2679,-0.2713,-0.2725,-0.2733,-0.273,-0.2715,-0.2708,-0.2703,-0.2713,-0.2728,-0.272,-0.2679,-0.2723,-0.271,-0.271,-0.271,-0.2641,-0.2634,-0.2708,-0.2708,-0.2707,-0.2707,0,-0.2656,-0.2676,-0.2692,-0.2727,-0.2749,-0.2774,-0.2795,-0.2804,-0.2798,-0.2798,-0.2797,-0.2779,-0.2766,-0.2769,-0.2769,-0.2769,-0.2732,-0.2724,-0.2698,-0.2717,-0.2642,-0.2634,-0.2713,-0.2711,-0.2711,-0.271,0,0,-0.2643,-0.2707,-0.2707,-0.2726,-0.2778,-0.279,-0.284,-0.2863,-0.2864,-0.2868,-0.2864,-0.2877,-0.2841,-0.2838,-0.2818,-0.2798,-0.2766,-0.2772,-0.2768,-0.2709,-0.2659,-0.2544,-0.2523,-0.2757,-0.2756,-0.2756,-0.2599,0,-0.267,-0.2726,-0.2759,-0.2807,-0.2833,-0.2858,-0.2897,-0.2916,-0.2915,-0.291,-0.289,-0.2876,-0.2875,-0.2853,-0.2843,-0.2787,-0.2751,-0.2808,-0.2646,-0.2641,-0.254,-0.2513,-0.2411,-0.2256,-0.2591,-0.2589,-0.2588,0,-0.268,-0.2717,-0.277,-0.2823,-0.2836,-0.2868,-0.289,-0.2922,-0.2934,-0.2932,-0.292,-0.2897,-0.2877,-0.2864,-0.2779,-0.2814,-0.2748,-0.27,-0.2692,-0.256,-0.2511,-0.2294,-0.2228,-0.2208,-0.2575,-0.2576,-0.2577,0,-0.2625,-0.2709,-0.274,-0.2763,-0.2836,-0.2853,-0.2882,-0.2911,-0.2916,-0.2921,-0.2913,-0.2891,-0.2853,-0.2797,-0.2712,-0.2741,-0.2595,-0.2611,-0.2436,-0.2426,-0.2294,-0.2273,-0.2194,-0.2539,-0.254,-0.254,-0.2541,0,-0.2612,-0.2627,-0.271,-0.2719,-0.2742,-0.2808,-0.2815,-0.2845,-0.2873,-0.2858,-0.2898,-0.2861,-0.2837,-0.2758,-0.2695,-0.2521,-0.2567,-0.2426,-0.2378,-0.2309,-0.2292,-0.2233,-0.227,-0.2534,-0.2535,-0.2537,-0.2538,0,-0.2519,-0.2585,-0.261,-0.269,-0.2709,-0.2708,-0.2765,-0.2763,-0.2816,-0.2796,-0.2795,-0.2814,-0.2703,-0.2645,-0.2523,-0.246,-0.2269,-0.2254,-0.2159,-0.2102,-0.1928,-0.1971,-0.1838,-0.1785,-0.2032,-0.2029,-0.2025,0,-0.247,-0.2478,-0.255,-0.2552,-0.258,-0.2604,-0.2617,-0.2702,-0.2706,-0.2739,-0.2714,-0.2647,-0.2555,-0.2347,-0.2214,-0.2039,-0.2083,-0.1865,-0.1911,-0.1884,-0.1898,-0.1953,-0.1925,-0.1751,-0.1746,-0.1741,-0.1738,0,-0.2354,-0.2379,-0.2389,-0.2417,-0.243,-0.2452,-0.2483,-0.2488,-0.2567,-0.2557,-0.2504,-0.2436,-0.2272,-0.2049,-0.1864,-0.1766,-0.1823,-0.177,-0.1774,-0.169,-0.1714,-0.1649,-0.1882,-0.17,-0.1704,-0.1707,-0.1709,-0.171,-0.2226,-0.2213,-0.2234,-0.2238,-0.2262,-0.2263,-0.2221,-0.2269,-0.2243,-0.2188,-0.2227,-0.2069,-0.1945,-0.1659,-0.1562,-0.1389,-0.1495,-0.1356,-0.1412,-0.147,-0.1424,-0.1554,-0.1307,-0.1308,-0.1309,-0.1311,-0.1312,0,-0.206,-0.206,-0.2058,-0.2055,-0.2015,-0.2092,-0.2094,-0.2023,-0.1931,-0.1913,-0.1816,-0.1612,-0.1419,-0.1337,-0.1161,-0.1073,-0.1091,-0.1065,-0.115,-0.1138,-0.1254,-0.1247,-0.0938,-0.0938,-0.0938,-0.0938,-0.0938,-0.0938,-0.1963,-0.1901,-0.1915,-0.1797,-0.1794,-0.1689,-0.1651,-0.1579,-0.1531,-0.1344,-0.1226,-0.1166,-0.1134,-0.1135,-0.1015,-0.0958,-0.0974,-0.0923,-0.0978,-0.1106,-0.114,-0.1172,-0.1174,-0.0854,-0.0854,-0.0816,-0.0816,-0.0816]},{"header":{"parameterUnit":"m.s-1","parameterCategory":2,"la1":30.2991,"la2":30.254,"lo1":-89.0895,"lo2":-89.0444,"dy":0.0017,"dx":0.0017,"nx":28,"ny":28,"refTime":"2024-05-10T21:00:00:Z","depth":"0","parameterNumber":3,"parameterNumberName":"V-component_of_CURRENTS"},"data":[0,0,0,0,0,0,0,0,0,0,0,0,0,0,0,0,0,0,0,0,0,0,0,0,0,0,0,0,0,0,0,0,0,0,0,0,0,0,0,0,0,0,0,0,0,0,0,0,0,0,0,0,0,0,0,0,0,0,-0.051,-0.051,0,-0.0446,-0.0445,-0.0445,-0.0397,-0.0396,-0.0396,-0.0396,-0.0288,-0.0285,-0.0283,0,0,0,0,0,0,0,0,0,0,0,0,0,-0.0553,-0.0553,-0.051,-0.051,-0.0509,-0.0446,-0.0445,-0.0444,-0.0397,-0.0396,-0.0396,-0.0395,-0.0289,-0.0286,-0.0283,0,0,0,0,0,0,0,0,0,0,0,0,0,-0.0516,-0.0553,-0.0511,-0.0478,-0.0474,-0.0447,-0.0445,-0.0444,-0.0397,-0.0396,-0.0396,-0.0395,-0.029,-0.0286,-0.0282,-0.027,0,0,-0.0271,-0.0269,0,0,0,0,0,0,0,0,-0.0518,-0.0515,-0.0484,-0.048,-0.0476,-0.0429,-0.0421,-0.0384,-0.0397,-0.0426,-0.0396,-0.0395,-0.0332,-0.0325,-0.0314,-0.0265,-0.0261,-0.027,-0.0268,-0.0266,-0.0265,0,0,0,0,0,0,0,-0.0521,-0.0517,-0.0484,-0.0483,-0.0478,-0.0453,-0.0448,-0.0414,-0.0382,-0.0423,-0.042,-0.0414,-0.0329,-0.0317,-0.0311,-0.0259,-0.027,-0.0267,-0.0265,-0.0263,-0.0192,-0.0192,0,0,0,0,0,0,-0.0533,-0.052,-0.0486,-0.0483,-0.0497,-0.0453,-0.0447,-0.0445,-0.0383,-0.0373,-0.0414,-0.0412,-0.0324,-0.0315,-0.0307,-0.0301,-0.0266,-0.0263,-0.0261,-0.0192,-0.0192,-0.0192,0,0,0,0,0,0,-0.0534,-0.0531,-0.0489,-0.05,-0.0493,-0.0454,-0.0451,-0.0444,-0.0432,-0.0377,-0.0366,-0.041,-0.0323,-0.0312,-0.0281,-0.0296,-0.0261,-0.0258,-0.0191,-0.0192,-0.0192,-0.0281,0,0,0,0,0,0,-0.0536,-0.0531,-0.0536,-0.0501,-0.0493,-0.0482,-0.0451,-0.0443,-0.0429,-0.0425,-0.037,-0.0359,-0.0322,-0.0287,-0.0278,-0.029,-0.0255,-0.0191,-0.0191,-0.0192,-0.0278,-0.0284,-0.029,0,0,0,0,0,-0.0537,-0.0551,-0.0537,-0.0533,-0.05,-0.0483,-0.0477,-0.0446,-0.043,-0.0432,-0.0393,-0.0361,-0.0285,-0.0285,-0.0273,-0.0285,-0.019,-0.0191,-0.0192,-0.0275,-0.0283,-0.029,0,0,0,0,0,0,-0.0574,-0.0546,-0.0531,-0.0535,-0.0514,-0.0475,-0.0476,-0.0453,-0.0424,-0.0419,-0.0364,-0.0351,-0.0331,-0.0294,-0.0295,-0.0265,-0.0233,-0.0231,-0.03,-0.0307,-0.0313,-0.0329,-0.0252,0,0,0,0,0,-0.0585,-0.0587,-0.0554,-0.0559,-0.0551,-0.0514,-0.0504,-0.0484,-0.0452,-0.0439,-0.0398,-0.0357,-0.0326,-0.0306,-0.0272,-0.0254,-0.0195,-0.0253,-0.026,-0.0266,-0.027,-0.0198,-0.0198,-0.0195,-0.0195,-0.0195,0,0,-0.0599,-0.0586,-0.0586,-0.0567,-0.0548,-0.0553,-0.0507,-0.0499,-0.0502,-0.0431,-0.0422,-0.0379,-0.0327,-0.031,-0.0297,-0.028,-0.0233,-0.0267,-0.0272,-0.0273,-0.0199,-0.0199,-0.0199,-0.0196,-0.0196,-0.0195,0,0,-0.0643,-0.062,-0.0641,-0.0629,-0.0609,-0.0584,-0.0586,-0.055,-0.0532,-0.0515,-0.0469,-0.0434,-0.0385,-0.0352,-0.0329,-0.0349,-0.0272,-0.0336,-0.0379,-0.0309,-0.0309,-0.0308,-0.0224,-0.0215,-0.0337,-0.0337,-0.0337,0,-0.0665,-0.0685,-0.0645,-0.0665,-0.0663,-0.0605,-0.0629,-0.0605,-0.0563,-0.0543,-0.0525,-0.0444,-0.0408,-0.0378,-0.0391,-0.0365,-0.0303,-0.0357,-0.0318,-0.0316,-0.0313,-0.0227,-0.0216,-0.0342,-0.0341,-0.0341,-0.034,0,-0.0727,-0.0741,-0.0753,-0.0758,-0.0748,-0.0757,-0.0719,-0.07,-0.0666,-0.0629,-0.0587,-0.053,-0.0475,-0.0465,-0.0438,-0.0405,-0.0358,-0.0337,-0.0302,-0.0319,-0.0227,-0.0214,-0.0348,-0.0346,-0.0345,-0.0344,0,0,-0.0782,-0.0796,-0.0802,-0.0815,-0.0798,-0.0793,-0.0793,-0.0765,-0.0742,-0.0699,-0.0662,-0.0626,-0.057,-0.0541,-0.0491,-0.0442,-0.0377,-0.0391,-0.0385,-0.0313,-0.0202,-0.0142,-0.0121,-0.0344,-0.0343,-0.0342,-0.0142,0,-0.0846,-0.0904,-0.089,-0.0931,-0.0952,-0.09,-0.0894,-0.0855,-0.0801,-0.0744,-0.0675,-0.0621,-0.0605,-0.0566,-0.0521,-0.0402,-0.0347,-0.0432,-0.0191,-0.0184,-0.0133,-0.0106,-0.0069,0.0115,-0.0128,-0.0126,-0.0124,0,-0.0914,-0.094,-0.1002,-0.1001,-0.1003,-0.1013,-0.0968,-0.0954,-0.0861,-0.0814,-0.0747,-0.0667,-0.0588,-0.0567,-0.0393,-0.0442,-0.034,-0.0255,-0.0244,-0.0149,-0.01,0.0092,0.0149,0.0265,-0.0103,-0.0105,-0.0106,0,-0.0968,-0.1013,-0.1062,-0.1069,-0.1062,-0.1065,-0.1046,-0.0973,-0.0939,-0.0842,-0.0786,-0.0682,-0.0592,-0.0478,-0.031,-0.0339,-0.0093,-0.0104,0.0045,0.0052,0.015,0.0163,0.0342,0.0013,0.0012,0.0011,0.0011,0,-0.1037,-0.1071,-0.109,-0.1115,-0.1142,-0.1112,-0.1103,-0.1063,-0.0976,-0.0909,-0.082,-0.0724,-0.0563,-0.0399,-0.0285,-0.006,-0.0066,0.0052,0.0109,0.0122,0.0129,0.0287,0.0319,0.0019,0.0017,0.0016,0.0015,0,-0.1086,-0.1106,-0.1157,-0.117,-0.1172,-0.1186,-0.1148,-0.1124,-0.104,-0.0943,-0.0907,-0.0719,-0.0497,-0.0325,-0.0085,0.0004,0.0282,0.0263,0.0275,0.0328,0.0541,0.0566,0.0809,0.0901,0.0457,0.046,0.0462,0,-0.1117,-0.1152,-0.1199,-0.1224,-0.1235,-0.1242,-0.1235,-0.1169,-0.1123,-0.0925,-0.0868,-0.0627,-0.0427,-0.0057,0.0147,0.0389,0.0445,0.0545,0.0473,0.0576,0.0647,0.065,0.0708,0.0582,0.0586,0.0588,0.059,0,-0.1162,-0.1182,-0.1219,-0.1276,-0.1297,-0.1306,-0.1279,-0.1244,-0.1122,-0.1001,-0.0768,-0.0582,-0.0206,0.0118,0.0412,0.0531,0.0638,0.0603,0.0716,0.0766,0.0779,0.0886,0.0433,0.0612,0.061,0.0608,0.0607,0.0606,-0.1179,-0.1222,-0.1271,-0.1318,-0.1345,-0.134,-0.1308,-0.1227,-0.1109,-0.0858,-0.0695,-0.0337,0.0062,0.0501,0.0644,0.0921,0.0859,0.0972,0.1001,0.1,0.1063,0.0659,0.0887,0.0887,0.0886,0.0886,0.0885,0,-0.1195,-0.1245,-0.1302,-0.1353,-0.1374,-0.1377,-0.1311,-0.1222,-0.104,-0.0756,-0.0492,0.0074,0.0459,0.0796,0.1159,0.13,0.1314,0.1358,0.1366,0.1412,0.1079,0.1055,0.1322,0.1322,0.1322,0.1322,0.1321,0.1321,-0.1204,-0.1267,-0.1306,-0.1354,-0.1379,-0.1344,-0.1285,-0.1113,-0.0882,-0.0417,-0.001,0.032,0.0764,0.1264,0.1598,0.1624,0.1751,0.1734,0.1812,0.1557,0.1522,0.1488,0.1475,0.1826,0.1827,0.2135,0.2138,0.214]}],[{"header":{"parameterUnit":"m.s-1","parameterCategory":2,"la1":30.2991,"la2":30.254,"lo1":-89.0895,"lo2":-89.0444,"dy":0.0017,"dx":0.0017,"nx":28,"ny":28,"refTime":"2024-05-10T21:00:00:Z","depth":"2","parameterNumber":2,"parameterNumberName":"U-component_of_CURRENTS"},"data":[0,0,0,0,0,0,0,0,0,0,0,0,0,0,0,0,0,0,0,0,0,0,0,0,0,0,0,0,0,0,0,0,0,0,0,0,0,0,0,0,0,0,0,0,0,0,0,0,0,0,0,0,0,0,0,0,0,0,-0.2284,-0.2285,0,-0.2298,-0.2298,-0.2298,-0.2271,-0.2271,-0.227,-0.2269,-0.2254,-0.2254,-0.2254,0,0,0,0,0,0,0,0,0,0,0,0,0,-0.2241,-0.2242,-0.2284,-0.2285,-0.2285,-0.2298,-0.2298,-0.2298,-0.2271,-0.2271,-0.227,-0.2269,-0.2254,-0.2254,-0.2254,0,0,0,0,0,0,0,0,0,0,0,0,0,-0.2256,-0.2242,-0.2284,-0.2275,-0.2274,-0.2298,-0.2298,-0.2298,-0.2272,-0.2271,-0.227,-0.2269,-0.2254,-0.2254,-0.2254,-0.2278,0,0,-0.2256,-0.2256,0,0,0,0,0,0,0,0,-0.2255,-0.2258,-0.2276,-0.2275,-0.2275,-0.2283,-0.2277,-0.229,-0.2272,-0.2271,-0.2269,-0.2268,-0.2263,-0.2263,-0.2265,-0.2277,-0.2277,-0.2256,-0.2256,-0.2256,-0.2256,0,0,0,0,0,0,0,-0.2254,-0.2257,-0.2288,-0.2276,-0.2276,-0.2272,-0.2272,-0.2279,-0.2271,-0.2271,-0.2269,-0.2274,-0.2262,-0.2265,-0.2265,-0.2276,-0.2256,-0.2256,-0.2256,-0.2256,-0.2276,-0.2277,0,0,0,0,0,0,-0.2257,-0.2256,-0.2287,-0.2288,-0.2264,-0.2273,-0.2274,-0.228,-0.2271,-0.227,-0.2275,-0.2273,-0.2265,-0.2264,-0.2264,-0.2284,-0.2256,-0.2256,-0.2257,-0.2276,-0.2276,-0.2277,0,0,0,0,0,0,-0.2256,-0.226,-0.2287,-0.2274,-0.2277,-0.2275,-0.2282,-0.2281,-0.2283,-0.2275,-0.2272,-0.2278,-0.2264,-0.2264,-0.2268,-0.2284,-0.2256,-0.2257,-0.2276,-0.2276,-0.2277,-0.233,0,0,0,0,0,0,-0.2255,-0.226,-0.2263,-0.2274,-0.2278,-0.2303,-0.2284,-0.2282,-0.2288,-0.2286,-0.2277,-0.2274,-0.2263,-0.2268,-0.2268,-0.2284,-0.2257,-0.2275,-0.2276,-0.2276,-0.2327,-0.2332,-0.2335,0,0,0,0,0,-0.2254,-0.2264,-0.2264,-0.2267,-0.2284,-0.2304,-0.2306,-0.2299,-0.229,-0.2296,-0.2286,-0.2275,-0.2271,-0.2269,-0.2269,-0.2285,-0.2275,-0.2276,-0.2276,-0.2326,-0.2331,-0.2335,0,0,0,0,0,0,-0.2246,-0.2263,-0.2262,-0.2276,-0.229,-0.23,-0.2306,-0.2305,-0.2304,-0.2299,-0.2285,-0.2283,-0.2292,-0.228,-0.2277,-0.229,-0.2269,-0.227,-0.2306,-0.2311,-0.2315,-0.2306,-0.2257,0,0,0,0,0,-0.2249,-0.2258,-0.2276,-0.2286,-0.2296,-0.2303,-0.2309,-0.231,-0.2312,-0.2311,-0.2305,-0.2297,-0.2297,-0.2297,-0.2294,-0.2308,-0.2276,-0.2315,-0.2319,-0.2322,-0.2314,-0.2288,-0.2288,-0.2279,-0.2279,-0.2279,0,0,-0.2248,-0.2259,-0.2263,-0.2285,-0.2294,-0.2316,-0.2303,-0.2319,-0.2332,-0.2311,-0.2322,-0.2315,-0.2304,-0.2314,-0.2317,-0.2306,-0.2307,-0.2323,-0.2327,-0.2316,-0.2288,-0.2289,-0.229,-0.228,-0.2279,-0.2279,0,0,-0.2258,-0.2264,-0.2278,-0.2295,-0.2316,-0.2325,-0.2332,-0.2348,-0.2347,-0.2366,-0.2347,-0.2344,-0.2354,-0.2341,-0.2338,-0.2362,-0.2331,-0.2367,-0.2382,-0.2358,-0.2358,-0.2358,-0.2315,-0.231,-0.2368,-0.2368,-0.2368,0,-0.2257,-0.2275,-0.2286,-0.2309,-0.2321,-0.2332,-0.2353,-0.2364,-0.2377,-0.2378,-0.2373,-0.2371,-0.2363,-0.2365,-0.2372,-0.2371,-0.2346,-0.2369,-0.2363,-0.2362,-0.2361,-0.2317,-0.2311,-0.2371,-0.2371,-0.237,-0.237,0,-0.228,-0.2296,-0.2308,-0.2338,-0.2357,-0.2375,-0.2397,-0.2411,-0.2416,-0.2421,-0.2425,-0.2412,-0.2406,-0.2409,-0.2401,-0.2395,-0.2375,-0.2373,-0.2352,-0.2366,-0.2318,-0.2311,-0.2375,-0.2374,-0.2373,-0.2372,0,0,-0.2262,-0.2313,-0.2313,-0.2328,-0.2369,-0.2384,-0.2417,-0.2438,-0.2449,-0.2459,-0.2463,-0.2462,-0.245,-0.2443,-0.243,-0.2409,-0.2385,-0.2394,-0.2391,-0.2353,-0.2317,-0.2211,-0.2194,-0.2388,-0.2387,-0.2387,-0.2284,0,-0.2269,-0.2308,-0.2335,-0.2368,-0.2387,-0.2415,-0.2442,-0.2465,-0.2478,-0.2488,-0.2475,-0.2474,-0.2466,-0.246,-0.2443,-0.2402,-0.237,-0.2411,-0.2306,-0.2303,-0.221,-0.2184,-0.2042,-0.193,-0.2277,-0.2276,-0.2275,0,-0.2269,-0.2295,-0.2328,-0.2373,-0.2385,-0.2411,-0.2443,-0.247,-0.2494,-0.2505,-0.2506,-0.2498,-0.2476,-0.2465,-0.2393,-0.2423,-0.237,-0.2332,-0.2327,-0.2203,-0.2185,-0.1973,-0.1905,-0.2264,-0.2265,-0.2266,-0.2266,0,-0.2224,-0.2281,-0.23,-0.2317,-0.2379,-0.2397,-0.2428,-0.2466,-0.2478,-0.2505,-0.2511,-0.2498,-0.2474,-0.2427,-0.2353,-0.2376,-0.2258,-0.2279,-0.2127,-0.2119,-0.196,-0.1939,-0.2211,-0.2211,-0.2211,-0.2212,-0.2212,0,-0.2202,-0.2213,-0.2281,-0.2289,-0.2312,-0.237,-0.2392,-0.2426,-0.2465,-0.2458,-0.2504,-0.2477,-0.2463,-0.24,-0.2345,-0.2199,-0.2246,-0.2108,-0.208,-0.1973,-0.1955,-0.2219,-0.2222,-0.2208,-0.2209,-0.2209,-0.221,0,-0.2132,-0.218,-0.2202,-0.2269,-0.2287,-0.2298,-0.2361,-0.237,-0.2429,-0.2421,-0.2426,-0.2446,-0.2358,-0.2316,-0.2219,-0.2158,-0.2051,-0.1986,-0.1851,-0.1808,-0.1935,-0.1942,-0.1812,-0.1807,-0.1803,-0.18,-0.1797,0,-0.2095,-0.21,-0.2163,-0.2166,-0.2191,-0.2227,-0.2241,-0.2326,-0.2336,-0.2371,-0.2346,-0.23,-0.2214,-0.2054,-0.1939,-0.1802,-0.1902,-0.1608,-0.1621,-0.1905,-0.1891,-0.1904,-0.1916,-0.1433,-0.1428,-0.1423,-0.1419,0,-0.2003,-0.2028,-0.2036,-0.2059,-0.2075,-0.2099,-0.2132,-0.2138,-0.221,-0.22,-0.2144,-0.2083,-0.1953,-0.174,-0.1599,-0.1515,-0.1627,-0.1508,-0.1821,-0.156,-0.154,-0.153,-0.1555,-0.1379,-0.1383,-0.1386,-0.1388,-0.139,-0.1905,-0.1895,-0.1909,-0.1914,-0.1936,-0.1932,-0.1891,-0.1927,-0.1898,-0.183,-0.1875,-0.1713,-0.1689,-0.1362,-0.126,-0.1187,-0.1306,-0.126,-0.1277,-0.1298,-0.1277,-0.1251,-0.103,-0.1032,-0.1034,-0.1036,-0.1037,0,-0.1768,-0.1765,-0.1762,-0.1752,-0.1712,-0.1784,-0.1774,-0.1695,-0.1589,-0.1557,-0.1461,-0.1228,-0.108,-0.1063,-0.0874,-0.0836,-0.0869,-0.0813,-0.0868,-0.0907,-0.0942,-0.0907,-0.056,-0.0559,-0.0557,-0.0556,0,0,-0.1687,-0.1628,-0.1634,-0.1516,-0.1511,-0.1401,-0.1358,-0.1263,-0.1203,-0.1037,-0.0936,-0.0968,-0.0997,-0.0763,-0.0723,-0.0608,-0.0756,-0.0573,-0.0952,-0.1054,-0.1088,-0.1189,-0.1175,0,0,0,0,0]},{"header":{"parameterUnit":"m.s-1","parameterCategory":2,"la1":30.2991,"la2":30.254,"lo1":-89.0895,"lo2":-89.0444,"dy":0.0017,"dx":0.0017,"nx":28,"ny":28,"refTime":"2024-05-10T21:00:00:Z","depth":"2","parameterNumber":3,"parameterNumberName":"V-component_of_CURRENTS"},"data":[0,0,0,0,0,0,0,0,0,0,0,0,0,0,0,0,0,0,0,0,0,0,0,0,0,0,0,0,0,0,0,0,0,0,0,0,0,0,0,0,0,0,0,0,0,0,0,0,0,0,0,0,0,0,0,0,0,0,-0.0427,-0.0426,0,-0.0379,-0.0378,-0.0378,-0.0342,-0.0342,-0.0342,-0.0342,-0.0256,-0.0255,-0.0253,0,0,0,0,0,0,0,0,0,0,0,0,0,-0.0449,-0.0449,-0.0427,-0.0426,-0.0425,-0.0379,-0.0378,-0.0378,-0.0343,-0.0342,-0.0342,-0.0342,-0.0257,-0.0255,-0.0252,0,0,0,0,0,0,0,0,0,0,0,0,0,-0.0424,-0.0449,-0.0427,-0.0403,-0.04,-0.0379,-0.0378,-0.0377,-0.0343,-0.0342,-0.0342,-0.0341,-0.0258,-0.0255,-0.0252,-0.0242,0,0,-0.0243,-0.0241,0,0,0,0,0,0,0,0,-0.0426,-0.0423,-0.0407,-0.0404,-0.0401,-0.0367,-0.0355,-0.033,-0.0343,-0.0364,-0.0342,-0.0341,-0.029,-0.0285,-0.0277,-0.0238,-0.0234,-0.0243,-0.0241,-0.0239,-0.0239,0,0,0,0,0,0,0,-0.0428,-0.0425,-0.0407,-0.0406,-0.0403,-0.0381,-0.0378,-0.035,-0.0329,-0.0362,-0.036,-0.0355,-0.0289,-0.028,-0.0274,-0.0233,-0.0243,-0.024,-0.0238,-0.0237,-0.017,-0.017,0,0,0,0,0,0,-0.0437,-0.0427,-0.0409,-0.0406,-0.0413,-0.0381,-0.0377,-0.0378,-0.033,-0.0323,-0.0355,-0.0354,-0.0285,-0.0278,-0.0271,-0.025,-0.0239,-0.0237,-0.0235,-0.017,-0.017,-0.017,0,0,0,0,0,0,-0.0438,-0.0436,-0.0411,-0.0415,-0.0411,-0.0382,-0.0383,-0.0377,-0.0369,-0.0325,-0.0317,-0.0353,-0.0284,-0.0275,-0.0249,-0.0246,-0.0235,-0.0232,-0.017,-0.017,-0.017,-0.0211,0,0,0,0,0,0,-0.0438,-0.0437,-0.0442,-0.0416,-0.0411,-0.0404,-0.0383,-0.0376,-0.0367,-0.0364,-0.0321,-0.0313,-0.0283,-0.0254,-0.0246,-0.0242,-0.023,-0.017,-0.017,-0.017,-0.0209,-0.0212,-0.0215,0,0,0,0,0,-0.044,-0.045,-0.0443,-0.0441,-0.0419,-0.0404,-0.04,-0.0377,-0.0368,-0.0368,-0.0338,-0.0314,-0.0249,-0.0252,-0.0243,-0.0237,-0.017,-0.017,-0.017,-0.0208,-0.0212,-0.0215,0,0,0,0,0,0,-0.0463,-0.0447,-0.0438,-0.0444,-0.0428,-0.0399,-0.0398,-0.0382,-0.036,-0.0358,-0.0315,-0.0305,-0.0282,-0.0256,-0.026,-0.0218,-0.0205,-0.0203,-0.0237,-0.024,-0.0243,-0.0247,-0.0228,0,0,0,0,0,-0.0472,-0.0476,-0.0454,-0.0459,-0.0454,-0.0427,-0.0419,-0.0405,-0.0381,-0.0371,-0.0339,-0.0305,-0.0275,-0.0256,-0.0229,-0.0205,-0.0166,-0.0195,-0.0198,-0.0201,-0.0198,-0.0139,-0.0136,-0.017,-0.017,-0.017,0,0,-0.0481,-0.0474,-0.0476,-0.0464,-0.0451,-0.0449,-0.0422,-0.0416,-0.0409,-0.0365,-0.0347,-0.0317,-0.0273,-0.0249,-0.0235,-0.0224,-0.017,-0.0201,-0.0203,-0.0199,-0.0138,-0.0135,-0.0132,-0.017,-0.017,-0.017,0,0,-0.0508,-0.0498,-0.0513,-0.0503,-0.049,-0.047,-0.0471,-0.0445,-0.0428,-0.041,-0.0375,-0.0339,-0.0302,-0.0261,-0.0237,-0.0237,-0.0191,-0.0233,-0.0242,-0.0185,-0.0182,-0.0178,-0.0124,-0.0116,-0.0229,-0.0229,-0.0229,0,-0.0522,-0.0536,-0.0514,-0.0525,-0.0519,-0.0482,-0.0492,-0.047,-0.0438,-0.0418,-0.0413,-0.034,-0.0304,-0.0256,-0.0256,-0.0241,-0.0206,-0.0235,-0.0188,-0.0184,-0.0179,-0.0125,-0.0115,-0.0231,-0.023,-0.023,-0.023,0,-0.0559,-0.0569,-0.0576,-0.0576,-0.0564,-0.0568,-0.0533,-0.0517,-0.0493,-0.0462,-0.0419,-0.0368,-0.0321,-0.0304,-0.0279,-0.023,-0.0214,-0.0204,-0.0181,-0.0178,-0.0121,-0.011,-0.0233,-0.0233,-0.0232,-0.0232,0,0,-0.0597,-0.0603,-0.0607,-0.0617,-0.0593,-0.0591,-0.057,-0.0539,-0.0523,-0.0481,-0.0449,-0.0391,-0.0357,-0.0328,-0.0286,-0.0232,-0.0169,-0.0209,-0.0205,-0.0157,-0.0045,-0.0015,0.0,-0.0153,-0.0152,-0.015,-0.0018,0,-0.0635,-0.0672,-0.0656,-0.0679,-0.0691,-0.0648,-0.063,-0.0592,-0.055,-0.0508,-0.0437,-0.0397,-0.0367,-0.0345,-0.0286,-0.0199,-0.0142,-0.0206,-0.0053,-0.0049,-0.0023,0.0014,-0.0009,0.0108,-0.0007,-0.0005,-0.0004,0,-0.0679,-0.0696,-0.0731,-0.073,-0.073,-0.0732,-0.0694,-0.0674,-0.0595,-0.056,-0.0497,-0.044,-0.0351,-0.0333,-0.0177,-0.0221,-0.0139,-0.0071,-0.0064,-0.0012,0.0003,0.0088,0.0133,0.0016,0.0014,0.0013,0.0012,0,-0.0724,-0.0748,-0.0779,-0.0782,-0.0771,-0.0771,-0.0756,-0.0691,-0.0668,-0.059,-0.0556,-0.0452,-0.0387,-0.0279,-0.0136,-0.0155,0.004,0.0034,0.0142,0.0145,0.0169,0.0171,0.0146,0.0146,0.0146,0.0145,0.0145,0,-0.0772,-0.0797,-0.0809,-0.0829,-0.0856,-0.0823,-0.0825,-0.079,-0.0724,-0.068,-0.059,-0.0523,-0.0369,-0.0239,-0.013,0.0051,0.0051,0.0155,0.0188,0.0153,0.0152,0.0103,0.0096,0.015,0.0149,0.0148,0.0147,0,-0.0819,-0.0827,-0.0869,-0.0879,-0.0884,-0.0903,-0.0885,-0.0875,-0.0805,-0.0741,-0.0715,-0.0558,-0.0379,-0.0221,-0.0017,0.0073,0.0227,0.0288,0.0237,0.0261,0.029,0.0279,0.0422,0.0424,0.0426,0.0427,0.0429,0,-0.0849,-0.0876,-0.0919,-0.0946,-0.0958,-0.0976,-0.0979,-0.0928,-0.09,-0.0751,-0.0715,-0.0528,-0.0369,-0.0065,0.012,0.033,0.031,0.0416,0.0378,0.0305,0.0322,0.0308,0.0295,0.0396,0.0397,0.0397,0.0398,0,-0.0899,-0.0916,-0.095,-0.1009,-0.1038,-0.1061,-0.1053,-0.1034,-0.0939,-0.0853,-0.0683,-0.054,-0.0236,0.0013,0.0269,0.0372,0.0376,0.0439,0.0402,0.032,0.0289,0.0302,0.0289,0.0405,0.0405,0.0404,0.0404,0.0403,-0.093,-0.0971,-0.1016,-0.1068,-0.1102,-0.1116,-0.1103,-0.105,-0.0975,-0.0786,-0.0661,-0.0391,-0.019,0.0215,0.0362,0.0493,0.0483,0.0505,0.0499,0.0493,0.0458,0.0431,0.0567,0.0568,0.0568,0.0568,0.0568,0,-0.0963,-0.1006,-0.1065,-0.1119,-0.1151,-0.116,-0.1125,-0.1059,-0.0931,-0.0735,-0.0537,-0.0239,0.0029,0.0238,0.0463,0.0577,0.054,0.0579,0.0508,0.0501,0.0494,0.0455,0.0566,0.0566,0.0567,0.0567,0,0,-0.098,-0.1042,-0.1076,-0.1138,-0.117,-0.1161,-0.1123,-0.0991,-0.0826,-0.0594,-0.0376,-0.0147,0.0098,0.0254,0.0379,0.0492,0.0459,0.0489,0.0477,0.0369,0.0362,0.0439,0.037,0,0,0,0,0]}],[{"header":{"parameterUnit":"m.s-1","parameterCategory":2,"la1":30.2991,"la2":30.254,"lo1":-89.0895,"lo2":-89.0444,"dy":0.0017,"dx":0.0017,"nx":28,"ny":28,"refTime":"2024-05-10T21:00:00:Z","depth":"4","parameterNumber":2,"parameterNumberName":"U-component_of_CURRENTS"},"data":[0,0,0,0,0,0,0,0,0,0,0,0,0,0,0,0,0,0,0,0,0,0,0,0,0,0,0,0,0,0,0,0,0,0,0,0,0,0,0,0,0,0,0,0,0,0,0,0,0,0,0,0,0,0,0,0,0,0,-0.1589,-0.159,0,-0.1637,-0.1638,-0.1638,-0.1669,-0.1669,-0.1669,-0.167,-0.1711,-0.1712,-0.1713,0,0,0,0,0,0,0,0,0,0,0,0,0,-0.1512,-0.1513,-0.1589,-0.159,-0.1591,-0.1637,-0.1638,-0.1638,-0.1669,-0.1669,-0.1669,-0.167,-0.1711,-0.1712,-0.1713,0,0,0,0,0,0,0,0,0,0,0,0,0,-0.155,-0.1514,-0.1589,-0.1613,-0.1616,-0.1637,-0.1638,-0.1638,-0.1668,-0.1669,-0.1669,-0.167,-0.171,-0.1712,-0.1713,-0.171,0,0,-0.1716,-0.1717,0,0,0,0,0,0,0,0,-0.1548,-0.1552,-0.1609,-0.1611,-0.1614,-0.1649,-0.1626,-0.1663,-0.1668,-0.1647,-0.167,-0.167,-0.169,-0.1693,-0.1699,-0.1712,-0.1714,-0.1717,-0.1717,-0.1718,-0.1718,0,0,0,0,0,0,0,-0.1545,-0.155,-0.1607,-0.1609,-0.1613,-0.1617,-0.1623,-0.1633,-0.1664,-0.1649,-0.1651,-0.1659,-0.1692,-0.1698,-0.17,-0.1714,-0.1716,-0.1718,-0.1718,-0.1719,-0.1772,-0.1772,0,0,0,0,0,0,-0.1543,-0.1548,-0.1605,-0.1608,-0.1583,-0.1618,-0.1624,-0.1636,-0.1664,-0.1669,-0.1659,-0.166,-0.1695,-0.1699,-0.1702,-0.1755,-0.1718,-0.1719,-0.172,-0.1771,-0.1772,-0.1773,0,0,0,0,0,0,-0.1541,-0.1547,-0.1603,-0.158,-0.1588,-0.1619,-0.1632,-0.1637,-0.1669,-0.1672,-0.1677,-0.1689,-0.1696,-0.17,-0.1731,-0.1755,-0.1719,-0.172,-0.177,-0.1771,-0.1772,-0.1826,0,0,0,0,0,0,-0.1539,-0.1547,-0.1565,-0.158,-0.1589,-0.1632,-0.1631,-0.1637,-0.1672,-0.1675,-0.1699,-0.1702,-0.1697,-0.173,-0.1732,-0.1756,-0.1721,-0.1769,-0.1771,-0.1772,-0.1824,-0.1829,-0.1834,0,0,0,0,0,-0.1536,-0.1554,-0.1566,-0.1573,-0.161,-0.1633,-0.1638,-0.166,-0.1673,-0.1691,-0.1707,-0.1702,-0.1739,-0.1731,-0.1735,-0.1759,-0.1769,-0.177,-0.1772,-0.1821,-0.1828,-0.1833,0,0,0,0,0,0,-0.153,-0.1559,-0.1573,-0.16,-0.1624,-0.1639,-0.1662,-0.1676,-0.1703,-0.1715,-0.1716,-0.172,-0.1753,-0.1748,-0.1739,-0.1776,-0.1751,-0.1754,-0.1788,-0.1794,-0.1799,-0.1781,-0.1722,0,0,0,0,0,-0.1537,-0.1561,-0.1586,-0.161,-0.1626,-0.165,-0.1667,-0.1683,-0.1704,-0.1718,-0.1735,-0.1748,-0.1757,-0.1771,-0.1777,-0.1803,-0.1776,-0.1818,-0.1823,-0.1828,-0.1814,-0.1801,-0.1803,-0.1778,-0.1778,-0.1778,0,0,-0.1543,-0.1562,-0.1578,-0.1612,-0.1633,-0.1658,-0.1662,-0.1697,-0.1719,-0.1717,-0.1761,-0.177,-0.1768,-0.1794,-0.1808,-0.1797,-0.1821,-0.183,-0.1834,-0.1817,-0.1803,-0.1805,-0.1807,-0.1779,-0.1779,-0.1778,0,0,-0.1555,-0.1585,-0.1607,-0.1629,-0.1668,-0.1682,-0.1698,-0.1732,-0.1752,-0.1791,-0.179,-0.181,-0.1841,-0.1834,-0.1834,-0.1869,-0.1847,-0.1883,-0.1899,-0.1888,-0.1889,-0.189,-0.1861,-0.1859,-0.1888,-0.1888,-0.1888,0,-0.1563,-0.159,-0.1617,-0.1642,-0.1663,-0.1696,-0.1721,-0.1744,-0.1785,-0.1799,-0.1814,-0.1847,-0.1851,-0.1861,-0.1874,-0.1879,-0.1867,-0.1879,-0.1894,-0.1894,-0.1894,-0.1864,-0.1861,-0.1891,-0.189,-0.189,-0.189,0,-0.1582,-0.1614,-0.163,-0.1672,-0.1699,-0.1727,-0.176,-0.1796,-0.1829,-0.1846,-0.1881,-0.1887,-0.1902,-0.1912,-0.1906,-0.1914,-0.1902,-0.1901,-0.1878,-0.19,-0.1867,-0.1863,-0.1895,-0.1894,-0.1893,-0.1892,0,0,-0.1564,-0.1631,-0.1638,-0.1663,-0.1717,-0.1738,-0.1783,-0.1819,-0.1848,-0.1888,-0.1914,-0.1931,-0.194,-0.1938,-0.1938,-0.1929,-0.1923,-0.1923,-0.1921,-0.1892,-0.1891,-0.1758,-0.174,-0.1937,-0.1937,-0.1936,-0.1868,0,-0.157,-0.1616,-0.165,-0.1698,-0.1723,-0.1769,-0.1805,-0.1845,-0.1883,-0.1918,-0.1925,-0.1952,-0.1949,-0.1966,-0.1957,-0.1934,-0.1915,-0.194,-0.1874,-0.1871,-0.1749,-0.1732,-0.1935,-0.1865,-0.1864,-0.1863,-0.1862,0,-0.1567,-0.16,-0.1646,-0.1709,-0.1726,-0.1765,-0.1827,-0.1863,-0.1912,-0.1942,-0.1968,-0.198,-0.1978,-0.1975,-0.1934,-0.1957,-0.1923,-0.1898,-0.1895,-0.1743,-0.1729,-0.1837,-0.1855,-0.1855,-0.1856,-0.1856,-0.1857,0,-0.1522,-0.1592,-0.1629,-0.1651,-0.173,-0.1767,-0.1812,-0.1872,-0.1899,-0.1956,-0.1979,-0.199,-0.1989,-0.1964,-0.1914,-0.1935,-0.1852,-0.1874,-0.1714,-0.1705,-0.1825,-0.1824,-0.1828,-0.1828,-0.1828,-0.1828,-0.1828,0,-0.1491,-0.1524,-0.1619,-0.1638,-0.1687,-0.1753,-0.1807,-0.1855,-0.1913,-0.1918,-0.1986,-0.1969,-0.1987,-0.1947,-0.1911,-0.178,-0.1847,-0.1691,-0.1669,-0.185,-0.1853,-0.1822,-0.1822,-0.1826,-0.1826,-0.1827,-0.1827,0,-0.1426,-0.149,-0.1538,-0.1633,-0.1667,-0.1702,-0.1796,-0.1818,-0.1897,-0.1904,-0.192,-0.1949,-0.1882,-0.1871,-0.1807,-0.1744,-0.1658,-0.1596,-0.1767,-0.1761,-0.1524,-0.1528,-0.1413,-0.1408,-0.1403,-0.1399,-0.1396,0,-0.1391,-0.1412,-0.1521,-0.1544,-0.1591,-0.1661,-0.1692,-0.1792,-0.1804,-0.1852,-0.1825,-0.1806,-0.1799,-0.1594,-0.1613,-0.1522,-0.1503,-0.1465,-0.1506,-0.1486,-0.1478,-0.1489,-0.1499,-0.1388,-0.1387,-0.1386,-0.1385,0,-0.1311,-0.1366,-0.1399,-0.1456,-0.1502,-0.1545,-0.1599,-0.1598,-0.1673,-0.1766,-0.1666,-0.1614,-0.1528,-0.147,-0.1404,-0.1349,-0.1501,-0.1417,-0.1427,-0.1465,-0.1455,-0.1454,-0.1469,-0.1369,-0.1371,-0.1372,-0.1373,0,-0.1244,-0.1251,-0.1301,-0.1334,-0.1388,-0.1386,-0.1444,-0.1434,-0.1458,-0.1522,-0.1471,-0.1451,-0.1482,-0.1375,-0.1314,-0.1248,-0.1236,-0.1212,-0.1233,-0.1251,-0.1231,-0.1197,-0.0986,0,0,0,0,0,-0.1162,-0.1148,-0.117,-0.1189,-0.1237,-0.1265,-0.1348,-0.1405,-0.1485,-0.1364,-0.1415,-0.1323,-0.1221,-0.1225,-0.1117,-0.1248,-0.1251,-0.1122,-0.1239,-0.1279,-0.1298,-0.129,0,0,0,0,0,0,-0.1099,-0.1112,-0.1118,-0.105,-0.1037,-0.1066,-0.1112,-0.1174,-0.1127,-0.1213,-0.1159,-0.123,-0.1152,-0.1232,-0.1077,-0.1079,-0.1125,-0.1131,-0.1127,-0.1269,-0.1286,-0.1301,-0.1299,0,0,0,0,0]},{"header":{"parameterUnit":"m.s-1","parameterCategory":2,"la1":30.2991,"la2":30.254,"lo1":-89.0895,"lo2":-89.0444,"dy":0.0017,"dx":0.0017,"nx":28,"ny":28,"refTime":"2024-05-10T21:00:00:Z","depth":"4","parameterNumber":3,"parameterNumberName":"V-component_of_CURRENTS"},"data":[0,0,0,0,0,0,0,0,0,0,0,0,0,0,0,0,0,0,0,0,0,0,0,0,0,0,0,0,0,0,0,0,0,0,0,0,0,0,0,0,0,0,0,0,0,0,0,0,0,0,0,0,0,0,0,0,0,0,-0.0304,-0.0304,0,-0.0284,-0.0284,-0.0283,-0.0271,-0.0271,-0.0271,-0.027,-0.0224,-0.0222,-0.0221,0,0,0,0,0,0,0,0,0,0,0,0,0,-0.0301,-0.0301,-0.0304,-0.0304,-0.0303,-0.0284,-0.0284,-0.0283,-0.0271,-0.0271,-0.0271,-0.027,-0.0224,-0.0223,-0.0221,0,0,0,0,0,0,0,0,0,0,0,0,0,-0.0293,-0.0301,-0.0304,-0.0295,-0.0294,-0.0284,-0.0284,-0.0283,-0.0271,-0.0271,-0.027,-0.027,-0.0225,-0.0223,-0.0221,-0.0211,0,0,-0.0215,-0.0215,0,0,0,0,0,0,0,0,-0.0294,-0.0293,-0.0296,-0.0296,-0.0294,-0.028,-0.0265,-0.0258,-0.0271,-0.0279,-0.027,-0.027,-0.024,-0.0237,-0.0233,-0.0209,-0.0207,-0.0215,-0.0214,-0.0213,-0.0213,0,0,0,0,0,0,0,-0.0294,-0.0294,-0.0296,-0.0296,-0.0295,-0.0282,-0.0281,-0.0264,-0.026,-0.0278,-0.0278,-0.0276,-0.0239,-0.0235,-0.0232,-0.0206,-0.0215,-0.0214,-0.0213,-0.0212,-0.0163,-0.0163,0,0,0,0,0,0,-0.0299,-0.0295,-0.0296,-0.0295,-0.0294,-0.0282,-0.0281,-0.0284,-0.026,-0.0257,-0.0276,-0.0275,-0.0238,-0.0234,-0.023,-0.0208,-0.0213,-0.0212,-0.0211,-0.0164,-0.0163,-0.0163,0,0,0,0,0,0,-0.0299,-0.03,-0.0297,-0.0294,-0.0293,-0.0282,-0.0286,-0.0284,-0.0285,-0.0259,-0.0255,-0.028,-0.0238,-0.0233,-0.0219,-0.0206,-0.0211,-0.0209,-0.0164,-0.0163,-0.0163,-0.0169,0,0,0,0,0,0,-0.0299,-0.03,-0.0308,-0.0295,-0.0293,-0.0295,-0.0286,-0.0284,-0.0284,-0.0283,-0.026,-0.0256,-0.0238,-0.0222,-0.0218,-0.0204,-0.0208,-0.0164,-0.0164,-0.0163,-0.0169,-0.0169,-0.0169,0,0,0,0,0,-0.0299,-0.0308,-0.0308,-0.0308,-0.0303,-0.0295,-0.0294,-0.0285,-0.0284,-0.0286,-0.0271,-0.0257,-0.0216,-0.0221,-0.0215,-0.0201,-0.0164,-0.0164,-0.0163,-0.0169,-0.0169,-0.0169,0,0,0,0,0,0,-0.031,-0.0307,-0.0307,-0.0315,-0.0308,-0.0294,-0.0296,-0.029,-0.028,-0.0282,-0.0258,-0.0252,-0.0235,-0.022,-0.0226,-0.0186,-0.0186,-0.0185,-0.0192,-0.0192,-0.0192,-0.0192,-0.0206,0,0,0,0,0,-0.0316,-0.0324,-0.0316,-0.0323,-0.0322,-0.0311,-0.0309,-0.0304,-0.0292,-0.0288,-0.0271,-0.025,-0.0228,-0.0214,-0.0198,-0.0176,-0.0154,-0.0163,-0.0162,-0.0162,-0.0159,-0.0112,-0.0107,-0.0162,-0.0162,-0.0162,0,0,-0.0322,-0.0323,-0.0327,-0.0326,-0.0322,-0.0319,-0.031,-0.031,-0.0303,-0.0284,-0.0272,-0.0255,-0.0225,-0.0202,-0.0192,-0.0187,-0.0138,-0.0162,-0.0162,-0.0159,-0.0111,-0.0106,-0.0101,-0.0161,-0.0161,-0.0161,0,0,-0.0335,-0.0339,-0.0349,-0.0345,-0.0343,-0.0333,-0.0335,-0.0324,-0.0315,-0.0305,-0.0283,-0.0255,-0.0234,-0.0196,-0.0177,-0.0166,-0.0144,-0.0166,-0.0156,-0.0111,-0.0106,-0.0101,-0.0075,-0.0068,-0.0159,-0.0159,-0.0159,0,-0.0343,-0.0356,-0.035,-0.0356,-0.0354,-0.034,-0.0345,-0.033,-0.0315,-0.0302,-0.0305,-0.0253,-0.0225,-0.0177,-0.0169,-0.0162,-0.0146,-0.0159,-0.011,-0.0105,-0.01,-0.0074,-0.0066,-0.0159,-0.0159,-0.0159,-0.0159,0,-0.036,-0.0371,-0.0376,-0.0379,-0.0373,-0.0378,-0.0356,-0.0348,-0.0338,-0.0318,-0.0285,-0.0247,-0.0213,-0.0194,-0.0176,-0.0124,-0.0129,-0.0121,-0.011,-0.0094,-0.0069,-0.006,-0.0159,-0.0159,-0.0159,-0.0159,0,0,-0.0378,-0.0388,-0.0392,-0.0404,-0.0389,-0.0391,-0.0371,-0.0349,-0.0342,-0.0311,-0.029,-0.0231,-0.0213,-0.0189,-0.0157,-0.0107,-0.0053,-0.0101,-0.0098,-0.0074,0.003,0.0015,0.0023,-0.0041,-0.0039,-0.0038,0.0031,0,-0.0396,-0.0421,-0.0413,-0.0431,-0.044,-0.0418,-0.0402,-0.0377,-0.0353,-0.0328,-0.0266,-0.0241,-0.0209,-0.0198,-0.0139,-0.0081,-0.003,-0.0073,0.0011,0.0013,-0.0,0.0033,-0.0033,0.0037,0.0039,0.0041,0.0042,0,-0.0417,-0.0433,-0.0457,-0.0467,-0.0468,-0.0472,-0.0455,-0.044,-0.0384,-0.0365,-0.0315,-0.0276,-0.0195,-0.018,-0.0056,-0.009,-0.0029,0.002,0.0024,0.002,0.0015,0.0022,0.0057,0.0056,0.0055,0.0054,0.0053,0,-0.0444,-0.0465,-0.0491,-0.0495,-0.0495,-0.0501,-0.0497,-0.0455,-0.0445,-0.0391,-0.0377,-0.0286,-0.0244,-0.0151,-0.0046,-0.0052,0.0082,0.0087,0.0134,0.0132,0.0126,0.0121,0.0181,0.0181,0.018,0.018,0.018,0,-0.0466,-0.0491,-0.0515,-0.0532,-0.0565,-0.0544,-0.0561,-0.054,-0.0502,-0.048,-0.0406,-0.0365,-0.0234,-0.0143,-0.0051,0.0064,0.0081,0.0144,0.0157,0.012,0.0113,0.0132,0.0125,0.0183,0.0182,0.0182,0.0181,0,-0.0493,-0.0506,-0.0547,-0.057,-0.0583,-0.0609,-0.062,-0.0622,-0.058,-0.0549,-0.0532,-0.0418,-0.0296,-0.0171,-0.0014,0.0053,0.0164,0.0202,0.0142,0.015,0.0184,0.0176,0.0261,0.0261,0.0262,0.0262,0.0262,0,-0.0508,-0.0532,-0.059,-0.0623,-0.0643,-0.0677,-0.0692,-0.0669,-0.0659,-0.0574,-0.0553,-0.0433,-0.0345,-0.0132,-0.001,0.0158,0.0183,0.0229,0.0225,0.0192,0.0197,0.0188,0.0181,0.0262,0.0262,0.0262,0.0262,0,-0.0537,-0.0565,-0.0601,-0.067,-0.0712,-0.0749,-0.0764,-0.0756,-0.0702,-0.0673,-0.0548,-0.0424,-0.0284,-0.0123,0.0003,0.0124,0.0192,0.0232,0.0232,0.0229,0.0194,0.0197,0.0189,0.0263,0.0263,0.0263,0.0263,0,-0.0561,-0.0598,-0.065,-0.0707,-0.0764,-0.0789,-0.0796,-0.0757,-0.0733,-0.0621,-0.0581,-0.0416,-0.0317,-0.014,-0.0023,0.009,0.0121,0.0153,0.0158,0.0159,0.0105,0.0045,0.009,0,0,0,0,0,-0.0576,-0.0617,-0.0677,-0.0736,-0.0791,-0.0815,-0.0824,-0.0811,-0.0756,-0.0668,-0.0615,-0.0475,-0.0267,-0.0178,-0.0064,-0.0041,0.0116,0.0093,0.0149,0.0267,0.0266,0.022,0,0,0,0,0,0,-0.0586,-0.0647,-0.0677,-0.0743,-0.078,-0.0828,-0.0829,-0.0793,-0.0731,-0.0657,-0.0544,-0.0463,-0.0268,-0.0331,-0.0065,-0.0032,0.0016,0.0193,0.0195,0.0267,0.0266,0.0266,0.0218,0,0,0,0,0]}]]